EW0609 Weather Reports


time (UTC)temp
C
wind
direction
speed
KPH
gust
KPH
rain 1hr
cm
rain 24hr
cm
rain mn
cm
humidity
%
barometer
mb
20260901131759 23 175 4.8 14.5 0.00 0.00 0.00 60 1020.0
20260901131300 23 155 6.4 14.5 0.00 0.00 0.00 61 1020.0
20260901130801 23 193 6.4 16.1 0.00 0.00 0.00 60 1019.8
20260901130301 23 178 6.4 16.1 0.00 0.00 0.00 60 1019.7
20260901125758 23 159 6.4 19.3 0.00 0.00 0.00 60 1019.7
20260901125257 23 228 8.0 19.3 0.00 0.00 0.00 59 1019.6
20260901124800 23 169 4.8 14.5 0.00 0.00 0.00 59 1019.6
20260901124300 23 145 6.4 14.5 0.00 0.00 0.00 59 1019.6
20260901123758 23 166 6.4 20.9 0.00 0.00 0.00 59 1019.5
20260901123258 23 202 8.0 20.9 0.00 0.00 0.00 59 1019.5
20260901122757 23 168 6.4 16.1 0.00 0.00 0.00 58 1019.4
20260901122258 23 172 4.8 11.3 0.00 0.00 0.00 58 1019.3
20260901121758 23 182 4.8 14.5 0.00 0.00 0.00 58 1019.3
20260901121636 23 195 8.0 17.7 0.00 0.00 0.00 58 1019.3
20260901120758 23 227 6.4 20.9 0.00 0.00 0.00 57 1019.3
20260901120533 23 154 6.4 14.5 0.00 0.00 0.00 57 1019.3
20260901120427 23 157 6.4 20.9 0.00 0.00 0.00 57 1019.2
20260901115258 23 138 4.8 19.3 0.00 0.00 0.00 57 1019.1
20260901114758 23 226 6.4 19.3 0.00 0.00 0.00 57 1019.0
20260901114259 23 183 8.0 17.7 0.00 0.00 0.00 57 1019.1
20260901113759 23 173 6.4 17.7 0.00 0.00 0.00 57 1019.2
20260901113300 23 168 6.4 14.5 0.00 0.00 0.00 57 1019.1
20260901112759 23 171 6.4 11.3 0.00 0.00 0.00 57 1019.2
20260901112301 23 161 4.8 8.0 0.00 0.00 0.00 57 1019.2
20260901111758 23 169 1.6 6.4 0.00 0.00 0.00 57 1019.1
20260901111259 23 179 1.6 8.0 0.00 0.00 0.00 57 1019.3
20260901111128 23 206 4.8 8.0 0.00 0.00 0.00 56 1019.2
20260901110302 23 172 3.2 8.0 0.00 0.00 0.00 57 1019.1
20260901105758 23 130 1.6 8.0 0.00 0.00 0.00 56 1019.1
20260901105259 23 162 1.6 8.0 0.00 0.00 0.00 56 1019.1
20260901104758 23 134 3.2 8.0 0.00 0.00 0.00 56 1019.0
20260901104301 23 135 3.2 8.0 0.00 0.00 0.00 56 1019.0
20260901104125 23 144 4.8 11.3 0.00 0.00 0.00 56 1018.8
20260901103258 23 140 6.4 11.3 0.00 0.00 0.00 56 1018.8
20260901102802 23 166 4.8 8.0 0.00 0.00 0.00 56 1019.0
20260901102258 23 210 3.2 8.0 0.00 0.00 0.00 56 1019.0
20260901101758 23 165 3.2 8.0 0.00 0.00 0.00 55 1018.8
20260901101619 23 166 3.2 9.7 0.00 0.00 0.00 55 1018.8
20260901100758 23 203 3.2 9.7 0.00 0.00 0.00 55 1018.8
20260901100506 23 173 4.8 9.7 0.00 0.00 0.00 54 1018.7
20260901100416 23 197 4.8 8.0 0.00 0.00 0.00 54 1018.8
20260901095259 23 148 3.2 9.7 0.00 0.00 0.00 54 1018.8
20260901094758 23 166 1.6 9.7 0.00 0.00 0.00 53 1018.8
20260901094258 23 166 3.2 16.1 0.00 0.00 0.00 52 1019.0
20260901093757 23 203 6.4 16.1 0.00 0.00 0.00 52 1019.0
20260901093259 23 182 6.4 16.1 0.00 0.00 0.00 52 1019.0
20260901092759 24 179 6.4 16.1 0.00 0.00 0.00 51 1019.0
20260901092300 24 189 6.4 16.1 0.00 0.00 0.00 51 1019.0
20260901091758 25 204 6.4 16.1 0.00 0.00 0.00 51 1019.0
20260901091258 25 124 8.0 14.5 0.00 0.00 0.00 50 1018.8
20260901090758 25 152 6.4 14.5 0.00 0.00 0.00 50 1019.0
20260901090258 24 190 6.4 14.5 0.00 0.00 0.00 51 1019.0
20260901090124 24 109 4.8 11.3 0.00 0.00 0.00 51 1019.0
20260901085258 24 185 6.4 11.3 0.00 0.00 0.00 51 1019.0
20260901084758 24 166 6.4 14.5 0.00 0.00 0.00 50 1018.8
20260901084259 24 179 4.8 16.1 0.00 0.00 0.00 50 1018.8
20260901083758 24 102 6.4 16.1 0.00 0.00 0.00 50 1018.7
20260901083624 24 128 4.8 17.7 0.00 0.00 0.00 50 1018.7
20260901082803 25 124 6.4 17.7 0.00 0.00 0.00 50 1018.8
20260901082259 25 148 6.4 16.1 0.00 0.00 0.00 49 1018.8
20260901081758 25 176 6.4 16.1 0.00 0.00 0.00 48 1018.8
20260901081300 25 182 4.8 17.7 0.00 0.00 0.00 48 1018.7
20260901080800 25 140 9.7 19.3 0.00 0.00 0.00 48 1018.7
20260901080530 25 130 6.4 19.3 0.00 0.00 0.00 48 1018.7
20260901080514 25 185 8.0 19.3 0.00 0.00 0.00 48 1018.7
20260901075258 25 168 6.4 16.1 0.00 0.00 0.00 48 1018.7
20260901074759 25 189 6.4 16.1 0.00 0.00 0.00 49 1018.7
20260901074259 25 157 8.0 17.7 0.00 0.00 0.00 48 1018.7
20260901073758 25 182 8.0 17.7 0.00 0.00 0.00 49 1018.8
20260901073258 25 123 8.0 16.1 0.00 0.00 0.00 49 1018.7
20260901073127 25 75 6.4 11.3 0.00 0.00 0.00 50 1018.8
20260901072259 25 110 4.8 11.3 0.00 0.00 0.00 50 1018.8
20260901072141 25 178 3.2 9.7 0.00 0.00 0.00 50 1018.8
20260901071301 25 161 1.6 6.4 0.00 0.00 0.00 51 1018.8
20260901070803 24 102 3.2 6.4 0.00 0.00 0.00 52 1019.0
20260901070303 24 149 1.6 4.8 0.00 0.00 0.00 54 1019.0
20260901065758 23 186 0.0 6.4 0.00 0.00 0.00 55 1019.1
20260901065259 23 155 1.6 6.4 0.00 0.00 0.00 56 1019.1
20260901064759 23 149 0.0 0.0 0.00 0.00 0.00 55 1019.1
20260901064259 23 134 0.0 0.0 0.00 0.00 0.00 57 1019.2
20260901063758 23 183 0.0 0.0 0.00 0.00 0.00 59 1019.1
20260901063257 23 134 0.0 0.0 0.00 0.00 0.00 57 1019.1
20260901062758 23 162 0.0 0.0 0.00 0.00 0.00 56 1019.2
20260901062527 23 176 0.0 0.0 0.00 0.00 0.00 57 1019.1
20260901062300 23 176 0.0 0.0 0.00 0.00 0.00 57 1019.1
20260901061759 24 145 0.0 4.8 0.00 0.00 0.00 54 1019.2
20260901061258 24 123 1.6 4.8 0.00 0.00 0.00 54 1019.1
20260901060759 24 128 1.6 4.8 0.00 0.00 0.00 54 1019.1
20260901060627 24 128 1.6 4.8 0.00 0.00 0.00 54 1019.1
20260901055803 24 117 1.6 3.2 0.00 0.00 0.00 54 1019.1
20260901055633 24 123 0.0 6.4 0.00 0.00 0.00 54 1019.1
20260901054758 25 141 1.6 6.4 0.00 0.00 0.00 53 1019.0
20260901054257 25 128 0.0 6.4 0.00 0.00 0.00 53 1019.0
20260901053757 25 154 1.6 6.4 0.00 0.00 0.00 52 1019.0
20260901053639 25 127 0.0 3.2 0.00 0.00 0.00 53 1019.0
20260901052757 25 183 0.0 4.8 0.00 0.00 0.00 53 1019.0
20260901052259 25 182 0.0 6.4 0.00 0.00 0.00 53 1019.0
20260901051757 25 116 3.2 6.4 0.00 0.00 0.00 52 1019.0
20260901051636 25 109 3.2 6.4 0.00 0.00 0.00 51 1018.8
20260901050757 26 113 3.2 6.4 0.00 0.00 0.00 50 1018.8
20260901050259 26 118 0.0 8.0 0.00 0.00 0.00 50 1019.0
20260901045759 26 155 3.2 8.0 0.00 0.00 0.00 50 1018.8
20260901045637 26 103 4.8 8.0 0.00 0.00 0.00 49 1018.8
20260901044757 26 138 4.8 11.3 0.00 0.00 0.00 49 1018.8
20260901044654 26 154 4.8 11.3 0.00 0.00 0.00 49 1018.7
20260901043759 26 113 4.8 8.0 0.00 0.00 0.00 49 1018.7
20260901043257 26 125 1.6 9.7 0.00 0.00 0.00 49 1018.7
20260901042802 26 125 4.8 9.7 0.00 0.00 0.00 49 1018.7
20260901042258 26 120 3.2 8.0 0.00 0.00 0.00 49 1018.6
20260901041757 26 123 3.2 8.0 0.00 0.00 0.00 49 1018.7
20260901041259 26 147 4.8 8.0 0.00 0.00 0.00 49 1018.6
20260901040758 26 109 4.8 8.0 0.00 0.00 0.00 48 1018.5
20260901040301 26 109 6.4 9.7 0.00 0.00 0.00 48 1018.5
20260901035757 27 159 4.8 9.7 0.00 0.00 0.00 47 1018.4
20260901035305 27 110 4.8 14.5 0.00 0.00 0.00 47 1018.4
20260901034758 27 114 4.8 14.5 0.00 0.00 0.00 46 1018.4
20260901034257 27 117 6.4 14.5 0.00 0.00 0.00 46 1018.2
20260901033758 27 130 3.2 9.7 0.00 0.00 0.00 46 1018.2
20260901033450 27 124 3.2 9.7 0.00 0.00 0.00 45 1018.2
20260901033405 27 123 3.2 9.7 0.00 0.00 0.00 45 1018.2
20260901032258 27 104 4.8 9.7 0.00 0.00 0.00 45 1018.0
20260901031759 27 121 4.8 9.7 0.00 0.00 0.00 45 1018.0
20260901031258 27 120 6.4 9.7 0.00 0.00 0.00 45 1017.8
20260901030758 27 154 4.8 9.7 0.00 0.00 0.00 45 1017.7
20260901030259 27 109 4.8 9.7 0.00 0.00 0.00 44 1017.6
20260901025802 28 97 6.4 9.7 0.00 0.00 0.00 43 1017.5
20260901025257 28 107 3.2 8.0 0.00 0.00 0.00 43 1017.5
20260901024757 28 109 4.8 11.3 0.00 0.00 0.00 43 1017.3
20260901024257 27 130 4.8 11.3 0.00 0.00 0.00 43 1017.2
20260901023758 28 157 3.2 6.4 0.00 0.00 0.00 43 1017.2
20260901023301 28 135 3.2 8.0 0.00 0.00 0.00 42 1016.9
20260901022757 28 189 3.2 9.7 0.00 0.00 0.00 41 1016.8
20260901022257 28 171 3.2 9.7 0.00 0.00 0.00 41 1016.7
20260901021759 28 96 3.2 9.7 0.00 0.00 0.00 40 1016.6
20260901021258 29 164 4.8 14.5 0.00 0.00 0.00 40 1016.5
20260901020759 29 149 4.8 14.5 0.00 0.00 0.00 40 1016.5
20260901020533 29 140 3.2 16.1 0.00 0.00 0.00 39 1016.3
20260901020424 29 154 4.8 14.5 0.00 0.00 0.00 40 1016.4
20260901015257 29 131 4.8 16.1 0.00 0.00 0.00 39 1016.3
20260901014758 30 106 4.8 9.7 0.00 0.00 0.00 38 1016.3
20260901014257 30 124 6.4 14.5 0.00 0.00 0.00 38 1016.1
20260901013757 30 141 4.8 14.5 0.00 0.00 0.00 37 1016.1
20260901013618 30 133 3.2 14.5 0.00 0.00 0.00 37 1016.1
20260901012758 30 135 6.4 14.5 0.00 0.00 0.00 36 1015.9
20260901012652 30 149 6.4 14.5 0.00 0.00 0.00 36 1015.9
20260901011758 30 161 4.8 11.3 0.00 0.00 0.00 36 1016.1
20260901011654 31 124 4.8 14.5 0.00 0.00 0.00 35 1015.9
20260901010757 31 135 4.8 17.7 0.00 0.00 0.00 34 1015.9
20260901010258 31 179 4.8 17.7 0.00 0.00 0.00 34 1015.9
20260901010152 31 128 8.0 16.1 0.00 0.00 0.00 34 1015.8
20260901005258 31 154 6.4 22.5 0.00 0.00 0.00 34 1015.9
20260901004800 31 166 6.4 22.5 0.00 0.00 0.00 33 1015.8
20260901004256 31 100 6.4 19.3 0.00 0.00 0.00 33 1015.7
20260901003758 32 144 9.7 19.3 0.00 0.00 0.00 32 1015.7
20260901003258 32 114 8.0 17.7 0.00 0.00 0.00 32 1015.7
20260901003134 32 111 8.0 22.5 0.00 0.00 0.00 31 1015.7
20260901002643 32 110 9.7 24.1 0.00 0.00 0.00 31 1015.7
20260901001757 32 106 11.3 24.1 0.00 0.00 0.00 30 1015.7
20260901001256 32 145 8.0 16.1 0.00 0.00 0.00 31 1015.6
20260901000757 32 141 8.0 20.9 0.00 0.00 0.00 31 1015.7
20260901000624 33 151 8.0 20.9 0.00 0.00 0.00 30 1015.7
20260831235758 33 172 9.7 20.9 0.00 0.00 0.00 30 1015.8
20260831235630 33 104 6.4 17.7 0.00 0.00 0.00 30 1015.8
20260831235103 33 245 9.7 20.9 0.00 0.00 0.00 29 1015.7
20260831234257 33 262 11.3 20.9 0.00 0.00 0.00 29 1015.7
20260831233757 33 185 6.4 22.5 0.00 0.00 0.00 29 1015.7
20260831233300 33 171 9.7 27.4 0.00 0.00 0.00 28 1015.6
20260831232758 33 93 11.3 27.4 0.00 0.00 0.00 29 1015.7
20260831232321 34 97 9.7 24.1 0.00 0.00 0.00 29 1015.7
20260831231918 34 200 9.7 24.1 0.00 0.00 0.00 29 1015.7
20260831231133 34 121 4.8 20.9 0.00 0.00 0.00 29 1015.8
20260831230633 34 133 8.0 20.9 0.00 0.00 0.00 28 1015.9
20260831225758 34 93 9.7 25.7 0.00 0.00 0.00 28 1015.9
20260831225257 34 173 11.3 25.7 0.00 0.00 0.00 29 1015.9
20260831224757 35 100 9.7 27.4 0.00 0.00 0.00 29 1016.1
20260831224258 35 180 8.0 27.4 0.00 0.00 0.00 29 1016.1
20260831224123 35 134 12.9 32.2 0.00 0.00 0.00 29 1015.9
20260831223257 35 131 6.4 32.2 0.00 0.00 0.00 29 1016.1
20260831222758 35 116 12.9 22.5 0.00 0.00 0.00 29 1016.1
20260831222259 35 168 9.7 22.5 0.00 0.00 0.00 29 1016.3
20260831221758 35 118 6.4 19.3 0.00 0.00 0.00 28 1016.2
20260831221258 35 154 8.0 20.9 0.00 0.00 0.00 29 1016.3
20260831220757 35 162 9.7 24.1 0.00 0.00 0.00 28 1016.2
20260831220257 35 113 11.3 24.1 0.00 0.00 0.00 28 1016.2
20260831215758 35 116 6.4 22.5 0.00 0.00 0.00 29 1016.2
20260831215638 35 124 11.3 22.5 0.00 0.00 0.00 29 1016.3
20260831214759 35 96 9.7 30.6 0.00 0.00 0.00 29 1016.4
20260831214257 35 109 8.0 30.6 0.00 0.00 0.00 28 1016.4
20260831213800 36 179 11.3 24.1 0.00 0.00 0.00 29 1016.4
20260831213523 35 99 9.7 19.3 0.00 0.00 0.00 28 1016.5
20260831213422 35 94 8.0 20.9 0.00 0.00 0.00 28 1016.4
20260831212257 35 114 9.7 24.1 0.00 0.00 0.00 28 1016.6
20260831211759 36 133 11.3 24.1 0.00 0.00 0.00 28 1016.7
20260831211257 36 130 6.4 20.9 0.00 0.00 0.00 29 1016.8
20260831210757 35 185 8.0 20.9 0.00 0.00 0.00 30 1016.8
20260831210257 35 152 9.7 27.4 0.00 0.00 0.00 29 1016.8
20260831205757 35 104 9.7 27.4 0.00 0.00 0.00 29 1016.9
20260831205258 35 237 9.7 20.9 0.00 0.00 0.00 28 1016.9
20260831204757 36 99 12.9 20.9 0.00 0.00 0.00 27 1017.1
20260831204259 36 145 8.0 19.3 0.00 0.00 0.00 28 1016.9
20260831203800 36 133 11.3 24.1 0.00 0.00 0.00 28 1017.1
20260831203638 36 83 14.5 24.1 0.00 0.00 0.00 28 1017.2
20260831202757 35 73 12.9 20.9 0.00 0.00 0.00 28 1017.4
20260831202258 36 172 6.4 20.9 0.00 0.00 0.00 28 1017.3
20260831201757 35 179 8.0 20.9 0.00 0.00 0.00 28 1017.5
20260831201257 35 89 9.7 17.7 0.00 0.00 0.00 29 1017.5
20260831200758 36 138 9.7 17.7 0.00 0.00 0.00 29 1017.6
20260831200259 35 113 4.8 19.3 0.00 0.00 0.00 29 1017.7
20260831195757 35 114 6.4 22.5 0.00 0.00 0.00 29 1017.8
20260831195642 35 168 6.4 22.5 0.00 0.00 0.00 29 1017.8
20260831195143 35 175 12.9 22.5 0.00 0.00 0.00 31 1018.1
20260831194256 35 147 6.4 22.5 0.00 0.00 0.00 30 1018.0
20260831193801 35 100 8.0 24.1 0.00 0.00 0.00 30 1017.8
20260831193256 35 134 11.3 24.1 0.00 0.00 0.00 30 1018.0
20260831192757 35 221 9.7 20.9 0.00 0.00 0.00 31 1018.0
20260831192626 35 244 8.0 14.5 0.00 0.00 0.00 31 1018.1
20260831191758 35 259 4.8 19.3 0.00 0.00 0.00 31 1018.1
20260831191258 35 157 6.4 24.1 0.00 0.00 0.00 31 1018.2
20260831190757 35 148 11.3 24.1 0.00 0.00 0.00 32 1018.1
20260831190257 35 125 12.9 24.1 0.00 0.00 0.00 33 1018.2
20260831185759 35 154 9.7 22.5 0.00 0.00 0.00 34 1018.3
20260831185259 35 178 9.7 22.5 0.00 0.00 0.00 36 1018.4
20260831184756 34 223 4.8 17.7 0.00 0.00 0.00 33 1018.3
20260831184256 35 209 9.7 19.3 0.00 0.00 0.00 33 1018.5
20260831184022 34 109 8.0 19.3 0.00 0.00 0.00 37 1018.6
20260831183802 34 109 8.0 19.3 0.00 0.00 0.00 37 1018.6
20260831183258 34 189 9.7 22.5 0.00 0.00 0.00 34 1018.6
20260831183018 34 113 9.7 24.1 0.00 0.00 0.00 36 1018.8
20260831182916 34 227 6.4 22.5 0.00 0.00 0.00 37 1018.6
20260831182015 34 113 6.4 17.7 0.00 0.00 0.00 35 1018.8
20260831181918 34 228 6.4 24.1 0.00 0.00 0.00 35 1018.7
20260831180758 34 152 8.0 22.5 0.00 0.00 0.00 36 1019.0
20260831180256 34 155 8.0 22.5 0.00 0.00 0.00 36 1019.0
20260831175757 34 233 8.0 19.3 0.00 0.00 0.00 38 1019.1
20260831175404 33 213 9.7 17.7 0.00 0.00 0.00 37 1019.2
20260831175332 33 171 8.0 19.3 0.00 0.00 0.00 38 1019.1
20260831174802 33 213 9.7 17.7 0.00 0.00 0.00 37 1019.2
20260831174624 33 175 6.4 17.7 0.00 0.00 0.00 40 1019.2
20260831173757 33 133 8.0 20.9 0.00 0.00 0.00 38 1019.2
20260831173629 33 238 9.7 20.9 0.00 0.00 0.00 40 1019.2
20260831172758 32 168 12.9 17.7 0.00 0.00 0.00 40 1019.3
20260831172257 33 178 8.0 20.9 0.00 0.00 0.00 40 1019.3
20260831171756 32 199 12.9 20.9 0.00 0.00 0.00 42 1019.4
20260831171258 32 151 9.7 17.7 0.00 0.00 0.00 43 1019.3
20260831170756 32 223 4.8 19.3 0.00 0.00 0.00 42 1019.3
20260831170639 32 175 9.7 19.3 0.00 0.00 0.00 44 1019.4
20260831165756 32 123 11.3 20.9 0.00 0.00 0.00 44 1019.4
20260831165257 32 209 11.3 20.9 0.00 0.00 0.00 42 1019.4
20260831165143 31 199 9.7 17.7 0.00 0.00 0.00 44 1019.4
20260831164257 31 206 4.8 17.7 0.00 0.00 0.00 45 1019.5
20260831164140 31 207 11.3 17.7 0.00 0.00 0.00 45 1019.5
20260831163257 31 235 4.8 19.3 0.00 0.00 0.00 46 1019.5
20260831162756 30 197 8.0 19.3 0.00 0.00 0.00 47 1019.5
20260831162301 30 173 4.8 14.5 0.00 0.00 0.00 46 1019.5
20260831161757 30 266 3.2 17.7 0.00 0.00 0.00 48 1019.4
20260831161257 30 241 8.0 17.7 0.00 0.00 0.00 47 1019.4
20260831161025 30 230 8.0 11.3 0.00 0.00 0.00 48 1019.4
20260831160630 30 203 4.8 17.7 0.00 0.00 0.00 48 1019.3
20260831160100 30 278 6.4 17.7 0.00 0.00 0.00 48 1019.2
20260831155256 30 238 9.7 17.7 0.00 0.00 0.00 49 1019.2
20260831154757 29 216 9.7 17.7 0.00 0.00 0.00 49 1019.3
20260831154257 29 257 8.0 16.1 0.00 0.00 0.00 48 1019.3
20260831153757 28 207 6.4 20.9 0.00 0.00 0.00 50 1019.3
20260831153256 28 164 8.0 20.9 0.00 0.00 0.00 51 1019.3
20260831152758 28 185 8.0 16.1 0.00 0.00 0.00 51 1019.3
20260831152258 28 247 4.8 19.3 0.00 0.00 0.00 51 1019.3
20260831151757 27 206 9.7 22.5 0.00 0.00 0.00 53 1019.2
20260831151256 27 141 9.7 22.5 0.00 0.00 0.00 51 1019.3
20260831150756 27 192 9.7 17.7 0.00 0.00 0.00 52 1019.3
20260831150629 27 183 8.0 17.7 0.00 0.00 0.00 53 1019.3
20260831145756 27 173 9.7 17.7 0.00 0.00 0.00 52 1019.3
20260831145258 26 223 6.4 14.5 0.00 0.00 0.00 53 1019.3
20260831144756 26 250 8.0 14.5 0.00 0.00 0.00 53 1019.4
20260831144255 26 250 4.8 11.3 0.00 0.00 0.00 53 1019.4
20260831143759 26 234 8.0 11.3 0.00 0.00 0.00 53 1019.4
20260831143256 26 243 3.2 9.7 0.00 0.00 0.00 54 1019.3
20260831142757 26 238 4.8 16.1 0.00 0.00 0.00 54 1019.3
20260831142258 26 228 6.4 16.1 0.00 0.00 0.00 53 1019.4
20260831141802 25 230 4.8 11.3 0.00 0.00 0.00 54 1019.4
20260831141629 25 248 6.4 11.3 0.00 0.00 0.00 54 1019.3
20260831140757 25 210 4.8 14.5 0.00 0.00 0.00 55 1019.2
20260831140255 25 173 6.4 14.5 0.00 0.00 0.00 56 1019.0
20260831140147 24 206 4.8 9.7 0.00 0.00 0.00 56 1019.1
20260831135256 24 233 3.2 8.0 0.00 0.00 0.00 57 1019.1
20260831134757 24 213 1.6 8.0 0.00 0.00 0.00 58 1019.0
20260831134259 23 216 3.2 6.4 0.00 0.00 0.00 57 1019.0
20260831133757 23 224 3.2 4.8 0.00 0.00 0.00 58 1019.0
20260831133255 23 173 0.0 0.0 0.00 0.00 0.00 59 1018.8
20260831132755 23 162 0.0 0.0 0.00 0.00 0.00 59 1018.7
20260831132306 23 272 0.0 0.0 0.00 0.00 0.00 59 1018.8